Home > Weather > Visalia > Past weeks

Flag for USA Past Weather in Visalia, California, USA — Yesterday and Last 2 Weeks

Now
77 °F

Sunny.


Feels Like: 78 °F
Forecast: 56 / 82 °F
Wind: 3 mph from North

Location: Visalia Municipal

Current Time: May 26, 2016 at 1:39:41 PM

Latest Report: May 26, 2016 at 12:56 PM


Visibility: 10 mi

Pressure: 30.05 "Hg

Humidity: 37%

Dew Point: 49 °F

Location of VisaliaLocation

Past Weather in Visalia — Graph

°F

Visalia Temperature Yesterday

Maximum temperature yesterday: 78 °F (at 3:56 PM)
Minimum temperature yesterday: 57 °F (at 5:56 AM)
Average temperature yesterday: 67 °F

High & Low Weather Summary for the Past Weeks

 TemperatureHumidityPressure
High95 °F (May 12, 3:56 PM)90% (May 22, 5:56 AM)30.14 "Hg (May 22, 5:56 AM)
Low49 °F (May 21, 5:56 AM)17% (May 19, 4:56 PM)29.68 "Hg (May 19, 5:56 PM)
Average70 °F50%29.93 "Hg
* Reported May 11 11:56 AM — May 26 11:56 AM, Visalia, Weather by CustomWeather, © 2016

Note: Actual official high and low records may vary slightly from our data, if they occured in-between our weather recording intervals... More about our weather records

Advertising

Visalia Weather History for the Previous 24 Hours

Scroll right to see more
 ConditionsComfort  
Time TempWeatherWind HumidityBarometerVisibility
11:56 AM
Thu, May 26
74 °FSunny.7 mph43%30.07 "Hg10 mi
10:56 AM71 °FSunny.7 mph47%30.09 "Hg10 mi
9:56 AM69 °FSunny.3 mph47%30.09 "Hg10 mi
8:56 AM64 °FSunny.3 mph58%30.09 "Hg10 mi
7:56 AM59 °FSunny.6 mph69%30.10 "Hg10 mi
6:56 AM58 °FOvercast.6 mph75%30.08 "Hg10 mi
5:56 AM57 °FClear.7 mph78%30.06 "Hg10 mi
4:56 AM57 °FClear.6 mph78%30.05 "Hg10 mi
3:56 AM58 °FClear.8 mph75%30.05 "Hg10 mi
2:56 AM60 °FPassing clouds.8 mph69%30.06 "Hg10 mi
1:56 AM63 °FPassing clouds.10 mph65%30.06 "Hg10 mi
12:56 AM62 °FPassing clouds.9 mph73%30.07 "Hg10 mi
11:56 PM
Wed, May 25
63 °FMild.6 mph70%30.07 "Hg10 mi
10:56 PM66 °FClear.6 mph61%30.07 "Hg10 mi
9:56 PM67 °FPassing clouds.5 mph57%30.07 "Hg10 mi
8:56 PM69 °FPassing clouds.5 mph53%30.06 "Hg10 mi
7:56 PM71 °FPassing clouds.10 mph49%30.05 "Hg10 mi
6:56 PM74 °FSunny.16 mph45%30.04 "Hg10 mi
5:56 PM77 °FSunny.12 mph39%30.03 "Hg10 mi
4:56 PM77 °FSunny.7 mph36%30.03 "Hg10 mi
3:56 PM78 °FSunny.8 mph36%30.04 "Hg10 mi
2:56 PM75 °FScattered clouds.3 mph40%30.07 "Hg10 mi
1:56 PM74 °FPartly sunny.8 mph43%30.08 "Hg10 mi
Weather by CustomWeather, © 2016

See weather overviewHow to use our weather pages